Location: Ostrava
(49.8330°N, 18.2830°E)
Time: 14:47:44
(UTC+02:00)

NOAA 19 - Visible Passes

Search period start: 30 April 2017 00:00
Search period end: 10 May 2017 00:00
Orbit: 841 x 863 km, 99.1° (Epoch: 28 April)

Date Brightness Start Highest point End Pass type
(mag) Time Alt. Az. Time Alt. Az. Time Alt. Az.
30 Apr 7.6 03:01:06 10° NE 03:04:33 17° E 03:08:00 10° SE visible
30 Apr 5.3 04:40:25 10° NNE 04:45:57 85° WNW 04:51:28 10° SSW visible
01 May 7.7 02:50:17 10° ENE 02:52:54 13° E 02:55:30 10° ESE visible
01 May 5.4 04:28:56 10° NNE 04:34:28 79° ESE 04:40:00 10° SSW visible
02 May 8.0 02:40:13 10° ENE 02:41:13 10° E 02:42:14 10° E visible
02 May 5.6 04:17:29 10° NNE 04:22:59 65° ESE 04:28:27 10° S visible
03 May 6.0 04:06:03 10° NNE 04:11:28 53° E 04:16:50 10° S visible
04 May 6.3 03:54:40 10° NNE 03:59:55 43° E 04:05:10 10° S visible
05 May 6.6 03:43:19 10° NNE 03:48:22 35° E 03:53:24 10° SSE visible
06 May 7.0 03:32:01 10° NE 03:36:48 29° E 03:41:33 10° SSE visible
07 May 7.2 03:20:48 10° NE 03:25:11 24° E 03:29:35 10° SE visible
08 May 7.5 03:09:40 10° NE 03:13:35 19° E 03:17:29 10° SE visible
09 May 7.7 02:58:40 10° NE 03:01:56 16° E 03:05:12 10° SE visible
